ECMWFFLT2_sfc_thetae_021.txt.gz
Theta_e
335 336 338 339 339 339 339 339 338 336 335 334 335 333 332 332 331 330 330 330 329 327 327 327 327 327 328 329 329 329 329 328 328 327 326 325 324 323 322 321 319 318 317 316 314 313 312 311 308 305 303 305
331 334 336 337 337 337 338 337 337 335 336 334 334 333 333 332 331 329 329 328 328 327 327 327 326 326 327 328 328 328 328 327 326 326 325 324 323 322 321 320 318 317 315 314 313 312 311 309 307 304 303 304
332 328 332 334 335 335 336 336 336 335 334 333 332 332 331 329 327 326 327 327 327 327 327 328 327 327 327 328 328 327 326 325 325 324 324 323 322 320 319 318 317 316 314 313 311 310 308 305 303 302 302 302
330 328 326 329 332 332 333 333 333 332 330 328 328 328 327 324 324 322 324 321 325 325 327 327 325 327 328 328 327 325 325 324 324 323 323 322 321 319 318 317 315 313 312 311 310 308 305 302 300 301 300 302
326 328 324 326 326 327 329 330 330 330 325 322 321 322 320 318 323 323 323 323 325 319 325 319 320 325 327 326 325 324 323 323 322 322 321 321 320 318 317 314 313 312 311 309 307 304 301 299 299 299 299 300
323 326 326 329 331 330 329 326 324 327 329 320 326 317 319 319 317 317 317 318 317 320 321 320 318 323 325 324 323 322 322 321 320 319 318 317 315 312 308 303 301 303 305 305 303 300 298 298 298 298 298 298
322 324 326 326 327 327 323 325 325 326 323 322 319 317 315 314 314 313 314 315 315 316 314 319 317 322 323 323 322 321 320 320 319 318 317 314 311 308 303 299 299 298 299 299 298 297 297 297 297 297 297 298
320 322 323 324 324 324 325 324 322 321 318 316 314 312 311 311 310 311 311 311 310 312 317 318 316 319 320 320 319 319 319 318 317 316 313 310 307 301 299 299 298 298 297 298 297 297 296 296 296 297 297 297
319 320 320 321 321 322 321 320 318 317 315 313 311 309 308 308 308 308 309 311 312 312 312 314 314 313 312 312 311 307 307 306 304 302 302 300 299 299 299 298 297 298 297 297 297 296 296 296 296 296 296 296
320 317 319 318 318 319 318 317 315 313 312 310 308 306 305 305 306 306 307 308 307 307 308 308 307 306 305 305 304 302 300 298 298 297 298 298 298 297 297 297 297 298 297 296 296 295 296 295 295 296 295 295
318 319 320 318 316 317 315 314 313 311 310 308 306 305 304 304 304 305 305 304 304 304 304 304 302 301 301 302 299 298 298 297 297 297 297 297 296 296 296 296 296 295 295 296 296 295 295 295 295 295 295 295
317 318 317 316 314 316 314 312 312 310 308 306 304 303 302 303 303 303 302 303 302 301 300 300 299 298 298 298 297 296 297 296 296 295 296 296 296 295 296 295 295 295 294 294 295 295 295 295 294 294 294 295
317 316 317 316 313 314 312 311 311 310 306 304 303 302 302 302 302 302 302 301 301 298 298 296 296 296 296 296 295 296 295 296 295 295 295 295 295 295 295 295 295 294 294 294 294 294 294 294 294 294 294 295
315 314 314 314 315 313 310 310 310 307 304 304 302 300 300 301 301 301 300 300 297 297 296 295 295 295 295 295 295 295 295 295 295 295 294 294 295 294 294 294 294 294 294 294 294 293 293 293 293 294 294 294
314 313 313 314 315 312 310 309 307 305 304 302 301 300 300 300 300 300 300 298 296 296 295 294 294 294 294 294 294 294 295 294 294 294 294 294 294 294 294 294 294 293 293 293 293 293 293 293 293 293 294 294
313 312 313 312 312 309 310 308 306 304 303 301 300 300 299 299 299 299 298 298 296 296 294 293 293 293 293 294 294 294 294 294 293 294 293 293 293 293 294 293 292 292 292 292 292 292 292 293 293 293 294 294
312 311 311 311 310 309 308 306 305 303 302 301 299 298 299 298 298 298 297 297 296 296 294 293 293 292 293 293 293 293 294 294 293 293 293 293 293 292 292 292 292 292 291 292 291 292 292 293 293 293 294 294
311 311 310 310 310 309 307 305 304 303 302 301 298 298 298 298 297 297 296 296 295 295 293 293 293 293 292 293 293 293 293 293 293 293 293 292 292 292 292 292 292 291 292 291 291 292 292 292 292 293 293 293
310 310 310 309 308 307 306 304 303 303 302 300 299 297 297 297 297 297 296 296 295 293 293 292 292 292 292 292 293 293 293 293 292 293 292 292 292 292 291 292 292 292 292 291 291 291 292 292 291 292 292 293
310 309 309 308 306 306 305 303 303 302 301 300 298 297 297 297 297 296 295 295 295 293 292 292 291 291 291 292 292 292 292 292 292 292 292 292 291 290 291 291 291 292 291 291 291 291 291 291 291 291 292 292
309 308 307 306 305 304 303 302 302 301 300 299 298 297 297 296 296 296 295 295 295 294 292 291 291 290 291 292 292 292 291 291 292 291 292 290 290 291 291 292 291 291 291 291 290 290 290 291 291 292 292 292
307 307 306 304 303 302 300 301 301 300 298 298 297 297 297 296 296 296 295 295 294 294 293 292 291 290 290 291 291 291 291 291 291 291 291 290 290 289 291 291 291 290 290 290 290 289 289 290 291 291 292 292
306 305 303 301 300 299 299 299 299 298 297 297 296 296 297 297 296 296 295 294 294 294 292 291 290 289 290 291 291 291 290 290 290 291 290 290 289 289 290 291 291 290 290 289 289 289 288 290 290 290 290 290
303 301 299 297 295 296 296 297 296 296 296 296 296 296 296 296 296 296 294 294 294 294 292 291 289 289 290 290 290 290 290 289 290 290 289 289 290 290 289 289 290 290 289 289 289 288 288 289 290 289 289 290
301 298 298 297 295 295 296 295 296 295 295 295 295 296 296 296 296 296 295 294 293 293 292 291 290 289 289 290 290 290 290 290 290 290 290 289 290 290 289 288 288 289 290 289 286 288 288 288 290 290 289 289
300 300 299 297 296 296 296 295 294 294 294 295 295 296 296 296 296 296 295 294 293 293 292 291 289 289 289 289 290 290 291 290 290 289 289 289 288 289 289 289 288 288 290 289 288 286 286 287 288 290 289 288
299 300 300 299 298 297 296 296 296 296 296 295 295 295 295 295 295 295 294 294 293 293 292 291 290 289 289 289 290 289 288 289 289 288 288 289 289 287 289 289 288 288 289 291 289 290 288 285 285 287 288 288
299 299 299 298 296 297 296 294 295 295 294 294 294 293 294 294 295 294 294 293 293 293 292 291 290 290 289 289 289 289 288 288 288 288 288 288 289 290 287 288 287 289 286 287 290 288 289 286 287 286 286 287
298 297 296 294 294 294 293 293 293 293 292 293 293 293 292 293 294 294 294 293 293 293 292 292 291 290 289 289 289 289 288 288 288 288 288 289 288 289 290 287 289 287 287 287 286 290 284 285 285 289 288 286
297 296 295 293 292 291 292 291 291 290 291 291 291 292 293 293 293 293 293 293 293 293 292 292 291 291 289 288 288 288 288 288 288 288 287 288 289 289 290 290 288 287 288 287 288 287 288 293 296 289 286 286
296 296 295 294 294 294 293 293 293 294 295 293 293 293 292 292 292 293 293 293 293 293 292 292 291 291 290 289 288 288 288 287 288 288 288 288 288 289 289 289 288 288 287 286 286 287 287 287 285 290 287 286

ECMWFFLT2_sfc_thetae_024.txt.gz
Theta_e
337 339 341 342 343 343 343 342 343 343 343 342 342 340 339 339 338 337 334 332 332 331 331 331 330 331 331 331 330 331 331 331 330 329 328 326 324 324 323 322 321 319 318 317 315 314 313 311 310 310 313 317
332 335 338 340 340 340 340 340 341 342 341 340 339 337 338 335 335 335 334 332 331 330 330 329 329 329 329 330 330 331 330 330 329 327 326 325 324 323 322 320 319 318 317 315 314 312 310 309 308 308 312 315
338 329 333 336 337 337 338 338 338 338 337 336 336 336 334 331 329 329 329 331 331 330 330 330 328 329 329 330 330 330 329 329 328 327 326 325 324 322 321 319 318 316 315 313 311 309 307 305 305 307 310 313
338 331 327 331 333 334 335 336 336 334 332 330 330 330 328 325 327 325 327 323 327 326 329 328 326 328 330 329 329 329 329 328 327 326 325 324 322 321 320 318 316 314 313 311 310 308 305 304 306 307 307 311
339 337 326 327 327 329 331 333 332 332 327 323 322 324 320 320 330 331 330 329 329 321 328 322 321 326 329 328 329 328 327 327 326 325 324 322 321 320 318 315 314 312 311 310 308 306 303 304 305 305 307 308
338 339 331 336 338 337 334 328 326 332 335 325 334 322 327 331 330 330 329 329 323 327 327 325 319 324 330 328 327 326 326 326 325 325 324 323 321 319 316 312 312 309 307 306 305 303 302 305 304 305 306 306
336 336 335 336 337 336 329 332 334 335 333 334 333 332 331 329 330 329 329 327 326 326 320 324 318 323 327 327 326 325 324 324 324 323 323 320 317 314 308 309 308 306 304 302 301 303 306 304 304 305 305 305
334 334 335 335 335 335 334 335 334 335 334 333 334 332 331 329 329 328 327 317 315 318 325 324 317 321 323 323 322 322 322 322 321 320 318 314 310 306 308 306 304 304 304 303 304 304 303 303 305 305 304 304
332 333 333 334 334 334 333 333 333 333 334 333 333 331 329 329 326 327 325 324 323 324 323 323 324 325 325 324 323 318 321 320 319 317 314 308 304 304 306 305 304 304 303 303 303 303 302 302 304 303 303 303
332 331 332 332 333 333 332 332 332 332 332 331 330 329 328 325 325 325 323 323 323 323 322 322 322 323 323 322 322 320 321 319 317 313 308 305 304 303 304 304 304 304 303 303 302 302 303 302 303 303 302 302
331 330 331 332 332 332 331 331 331 330 330 329 328 327 325 324 323 322 321 321 321 321 321 321 322 322 321 321 319 318 316 314 311 306 304 303 304 303 303 303 304 303 304 304 303 302 303 302 302 302 302 302
329 330 330 331 330 330 330 330 329 329 328 327 324 324 323 323 323 321 319 319 319 319 319 319 320 320 318 318 316 315 313 310 306 304 303 304 304 303 303 302 302 301 302 302 303 302 302 302 302 302 301 302
328 329 329 330 329 329 326 329 329 329 328 324 323 322 321 321 320 319 318 317 317 317 317 318 317 316 316 315 312 311 309 307 304 303 303 302 302 302 301 301 302 301 301 301 302 301 302 302 301 302 302 302
327 327 327 328 328 328 327 328 329 328 325 325 322 319 319 319 320 318 317 316 315 315 315 315 315 315 314 312 310 308 307 304 303 302 302 302 302 302 302 301 301 300 301 300 301 301 301 301 301 301 301 302
326 326 326 327 328 328 327 327 327 326 325 324 321 319 317 317 318 317 316 315 314 313 313 313 312 312 311 310 307 306 305 303 303 303 302 302 300 300 300 300 300 300 300 300 300 300 301 300 300 301 301 301
325 325 326 327 327 326 327 327 326 325 324 320 320 318 316 316 315 315 314 314 313 312 311 310 310 310 309 309 306 305 304 302 303 302 304 304 303 302 302 300 299 300 299 299 299 300 300 300 300 300 301 301
324 325 325 325 325 326 326 325 325 324 322 321 320 317 315 314 314 313 313 312 311 310 310 309 308 308 307 307 305 303 303 303 302 302 300 301 301 300 300 299 299 300 300 299 298 299 299 299 300 300 300 300
323 324 324 324 325 325 324 323 323 322 322 320 318 316 315 313 312 311 311 311 310 309 308 307 307 306 306 305 304 302 302 300 300 299 300 299 298 298 298 298 297 296 298 298 298 299 299 299 299 300 300 299
322 323 323 323 323 324 322 323 322 321 321 319 317 316 314 312 311 310 310 310 308 307 306 305 305 304 304 303 302 301 300 299 300 300 300 298 297 297 297 298 298 298 297 297 297 298 298 298 299 299 299 299
321 322 322 322 318 322 322 321 320 320 319 318 316 314 313 312 310 309 309 308 307 306 305 304 303 302 303 302 301 300 300 300 299 300 300 299 299 296 297 297 296 298 298 298 298 298 298 298 298 298 298 298
321 321 321 320 320 321 320 319 318 318 318 317 315 313 312 311 309 308 307 307 306 305 304 303 302 301 302 301 300 300 300 299 299 300 300 299 299 298 296 296 296 296 297 297 297 297 298 298 298 298 297 298
319 319 319 319 319 318 318 318 318 317 316 315 314 312 310 310 309 307 307 306 305 304 303 303 302 301 301 300 300 300 299 298 300 300 299 297 298 298 297 295 296 295 296 297 296 296 297 297 297 298 297 297
318 318 318 318 317 316 316 316 316 315 314 314 313 311 310 308 308 306 306 305 304 303 302 301 301 300 300 299 299 299 298 299 299 299 298 297 296 297 297 296 296 296 297 297 297 296 295 296 296 297 297 296
315 315 314 313 314 313 313 314 313 313 312 312 311 311 309 308 307 306 305 304 303 302 301 300 300 299 299 299 299 298 298 297 297 298 298 297 296 295 296 298 298 297 295 295 295 294 294 295 295 295 295 296
313 312 312 312 312 311 312 311 311 311 311 310 310 309 308 307 306 305 304 303 303 301 300 300 299 299 298 298 298 298 298 299 298 298 298 297 296 295 293 294 296 297 297 294 293 294 293 293 294 293 294 294
312 313 312 311 311 311 311 310 308 308 309 308 308 307 307 307 306 304 304 302 302 301 301 299 298 298 297 297 297 298 299 299 298 298 297 297 295 296 294 293 295 296 295 293 292 290 290 291 292 292 292 292
310 312 312 311 311 310 309 309 309 309 308 307 306 306 306 306 305 304 303 302 301 300 300 300 298 297 297 297 297 297 298 298 297 297 297 296 294 293 295 294 296 296 297 293 295 295 292 289 289 290 290 292
310 310 311 310 309 308 309 307 307 306 306 305 305 304 305 304 304 304 303 302 301 300 300 300 298 297 296 296 297 297 296 297 297 296 296 295 295 294 292 294 292 296 297 298 296 291 292 292 292 289 289 289
308 307 307 307 306 306 305 304 303 303 303 303 303 303 302 302 303 303 302 302 301 300 300 300 299 297 297 296 297 297 296 296 296 296 296 295 295 294 292 292 292 293 296 296 299 295 292 289 289 292 294 290
305 305 305 304 303 301 301 301 301 300 301 301 301 301 302 302 301 302 302 302 301 300 299 299 299 298 297 296 296 296 296 297 297 296 295 295 295 294 295 294 293 291 294 295 297 296 297 299 294 294 293 291
304 304 304 303 303 303 302 301 302 302 302 302 301 302 301 300 301 301 301 301 301 300 299 299 299 299 297 296 296 296 296 295 296 296 296 296 295 295 295 296 293 292 291 293 292 294 295 296 291 299 293 290

ECMWFFLT2_sfc_thetae_030.txt.gz
Theta_e
341 343 345 347 347 347 348 348 348 349 349 348 348 347 347 346 345 344 343 343 338 337 335 334 333 332 332 331 331 331 330 330 330 330 329 329 326 325 324 323 322 320 318 317 317 316 317 317 319 318 316 315
338 341 344 344 345 345 345 346 347 347 347 347 347 345 345 343 342 341 342 340 339 336 335 335 335 334 331 331 331 331 330 330 330 329 329 328 326 325 324 322 321 319 317 316 315 315 315 314 316 315 316 312
337 334 339 341 342 342 343 344 344 345 344 343 344 344 341 337 334 333 335 335 337 336 334 332 330 333 331 331 330 330 330 330 329 329 328 327 325 324 323 321 319 317 316 313 313 312 311 311 310 311 312 309
340 332 332 336 339 339 341 341 342 341 338 336 335 336 333 328 327 327 327 327 328 329 332 330 326 329 333 331 331 331 330 330 329 328 328 326 325 323 321 320 317 315 313 311 310 309 311 312 310 305 305 306
340 337 328 330 331 333 335 337 336 336 331 327 326 327 323 321 327 325 324 324 324 322 324 322 323 328 331 330 331 331 330 329 328 328 327 326 325 322 321 317 315 313 311 310 308 309 311 309 303 302 304 304
338 338 332 334 334 332 332 329 328 330 332 327 330 322 322 325 326 326 324 324 324 323 322 321 321 325 330 329 332 332 330 328 327 327 327 326 324 322 319 314 306 306 311 309 307 307 310 301 301 301 301 303
335 335 334 336 336 334 329 330 329 332 331 330 331 327 325 325 326 326 325 324 324 324 320 321 320 324 327 329 330 331 330 329 327 326 326 326 324 320 315 308 302 300 299 298 305 307 302 301 300 301 300 302
332 332 334 336 336 335 334 333 331 332 331 331 330 328 326 325 325 326 326 323 321 322 322 320 318 322 324 326 326 326 326 327 327 326 325 325 322 317 311 306 302 301 299 296 295 297 300 301 302 301 301 301
331 330 331 334 335 335 334 333 333 332 332 331 330 328 327 326 325 326 325 322 322 321 321 318 317 319 320 319 319 320 318 319 320 320 315 314 311 305 304 303 302 302 299 298 299 299 299 299 300 300 300 301
330 330 328 330 332 333 332 332 332 331 331 330 330 328 327 326 325 325 324 321 321 320 320 319 317 318 319 318 318 319 318 316 317 315 312 310 307 304 302 301 300 300 301 300 299 298 298 298 299 299 299 300
329 328 329 328 328 329 329 329 330 330 330 330 328 328 327 326 324 323 322 321 319 319 320 318 318 317 317 319 318 318 316 315 316 313 310 307 306 302 300 301 301 301 300 299 299 299 299 299 298 298 298 298
330 329 329 328 327 327 327 327 328 328 328 329 328 327 327 324 324 323 321 320 319 318 319 318 318 317 317 317 317 317 315 315 313 311 307 304 301 299 300 300 300 301 301 299 299 299 299 299 298 298 298 298
330 329 328 327 327 326 325 328 328 328 327 327 327 327 327 323 323 322 321 319 319 318 317 316 317 316 316 317 316 317 314 313 312 309 303 300 299 299 299 299 299 299 299 298 298 299 299 298 297 297 298 298
329 329 328 328 328 327 326 327 327 327 326 326 326 326 326 324 323 321 321 319 318 318 315 315 316 316 316 316 316 315 314 311 310 304 299 299 299 299 298 298 297 297 297 297 297 298 298 297 297 297 297 297
329 328 328 328 328 327 327 327 326 326 326 325 325 325 326 324 323 321 321 318 317 316 315 315 315 315 315 315 315 314 312 310 306 300 299 300 298 298 297 297 297 296 296 296 297 298 297 296 296 296 297 297
328 327 328 327 328 327 327 326 326 325 325 323 324 324 325 324 323 321 321 319 317 316 314 314 314 314 315 314 312 312 308 306 303 300 299 298 297 297 297 296 296 296 295 295 296 296 296 296 295 295 296 296
326 326 327 326 327 327 327 326 325 325 324 324 324 324 324 325 323 321 320 318 317 314 314 312 313 313 313 312 310 309 305 303 300 299 298 299 299 297 296 296 295 297 295 295 295 296 295 295 295 295 295 296
323 324 324 324 325 325 326 325 325 324 324 324 323 322 323 324 323 322 320 318 316 314 313 312 312 312 310 309 307 306 303 301 298 297 298 297 297 299 296 295 295 293 294 294 293 293 294 294 294 294 295 295
322 321 322 322 323 324 324 324 323 323 324 323 323 322 321 322 322 322 320 317 315 313 312 311 310 310 309 308 306 303 301 300 298 298 298 297 296 295 294 295 296 294 294 293 294 294 293 293 293 294 295 295
320 322 321 321 320 321 320 321 322 321 322 323 321 321 320 320 320 320 320 316 314 312 311 310 309 309 308 307 304 302 300 299 298 297 298 296 295 294 293 294 293 294 293 293 294 292 292 293 293 293 293 294
319 320 320 321 320 321 320 320 319 319 319 319 321 318 317 318 319 319 319 315 313 312 309 308 308 308 307 305 303 301 300 298 297 297 297 295 295 294 292 292 291 292 293 294 293 292 293 292 292 292 294 293
318 319 318 319 318 318 319 319 319 319 319 318 317 317 315 317 317 317 317 315 312 310 309 307 306 306 306 304 302 301 299 298 296 296 295 293 294 293 293 292 291 292 293 295 294 293 293 292 293 293 293 293
316 317 317 317 316 317 317 317 318 318 318 317 316 316 315 316 316 314 315 314 310 309 308 305 304 304 304 302 301 300 298 297 295 296 295 293 293 294 294 293 292 293 294 294 294 293 292 292 293 292 292 291
314 315 312 312 313 313 313 314 314 316 316 316 315 315 314 314 313 312 313 312 309 309 307 304 303 302 302 301 300 299 297 296 294 295 294 293 293 293 293 293 293 293 293 292 292 291 292 291 292 292 292 292
310 309 310 310 310 311 311 312 312 313 314 313 313 313 312 312 312 311 311 310 309 308 306 305 302 301 301 300 299 298 297 297 295 295 295 294 294 293 292 292 292 293 293 291 288 289 289 290 291 291 291 291
309 310 310 309 309 310 310 310 309 310 311 312 312 311 310 310 309 310 310 309 309 308 307 304 301 300 299 298 298 298 297 295 295 295 294 294 292 292 292 291 293 293 292 288 287 286 287 288 289 290 289 289
307 308 309 309 308 308 308 309 309 309 309 309 309 307 307 307 307 307 306 307 307 308 307 305 301 300 299 298 297 296 295 295 294 295 294 294 293 291 290 291 293 293 293 287 287 287 286 284 285 288 287 288
305 307 308 307 306 307 305 302 305 306 306 306 307 305 305 305 306 305 304 304 304 305 306 305 303 300 299 298 297 297 296 294 294 294 294 294 292 292 290 290 292 292 291 289 289 284 285 284 284 283 285 285
302 305 304 305 304 303 303 303 302 302 303 303 303 303 303 304 305 305 303 303 303 303 304 303 303 300 298 298 297 296 296 295 295 294 295 294 293 292 292 290 290 291 291 290 292 289 285 284 284 283 284 285
301 302 301 300 299 298 299 299 300 299 299 300 300 301 302 303 303 304 303 302 302 301 301 301 302 300 298 297 296 296 295 295 294 294 294 294 293 292 291 291 290 290 291 291 291 290 289 288 285 284 285 285
300 299 300 300 300 299 298 297 299 300 300 300 301 301 301 301 302 302 302 301 300 300 299 300 300 299 299 297 297 296 295 294 294 295 294 294 293 292 292 290 289 290 290 290 290 292 293 291 289 289 286 283

ECMWFFLT2_sfc_thetae_033.txt.gz
Theta_e
342 344 347 348 349 348 348 348 348 349 349 349 349 348 348 347 346 345 345 345 344 343 341 338 337 336 335 334 333 332 331 331 331 330 330 329 328 326 325 323 322 320 319 318 318 317 317 318 320 318 316 314
339 341 344 345 345 345 345 346 347 347 347 347 347 346 345 344 343 343 344 344 344 343 339 337 337 337 334 333 332 332 331 330 330 330 329 329 327 326 324 322 321 319 317 316 314 315 316 316 317 317 315 309
338 336 340 342 342 342 343 344 344 345 344 343 344 343 341 340 337 336 336 337 339 338 336 333 331 334 334 332 332 331 331 331 330 330 330 329 327 325 324 322 320 318 316 314 313 313 315 313 313 312 307 306
338 334 333 337 339 339 341 341 342 341 339 337 337 338 336 332 332 329 332 328 331 331 333 330 326 330 333 332 331 331 330 330 330 330 330 328 326 325 323 321 318 315 314 312 312 313 314 312 309 301 301 305
337 336 331 332 333 334 337 338 338 339 334 329 329 331 328 325 330 328 330 328 327 324 325 322 324 328 332 332 332 333 331 330 330 329 328 327 326 324 322 318 315 314 312 312 312 311 311 308 299 299 301 307
338 337 332 336 336 335 335 332 331 334 337 330 335 326 327 328 325 325 325 324 324 322 322 321 322 326 331 331 332 333 332 330 330 329 327 326 326 324 320 314 301 303 312 311 312 310 310 299 298 298 301 306
337 337 334 335 336 335 331 332 333 335 333 332 332 329 327 324 324 324 322 322 321 321 319 321 321 326 328 330 329 331 333 332 329 328 327 326 325 322 316 302 297 296 294 294 304 303 299 297 297 297 301 304
335 336 335 335 335 335 335 334 333 333 331 331 330 327 325 324 323 323 322 321 319 320 319 319 320 324 325 326 325 326 327 329 329 329 327 325 324 317 306 298 297 296 295 293 293 294 298 298 297 297 298 301
332 333 334 335 335 335 334 333 332 331 331 330 328 326 324 323 323 323 322 321 320 320 318 317 318 320 320 320 318 321 316 317 319 320 317 318 311 304 303 300 297 297 295 295 294 295 297 297 296 297 298 301
331 330 332 333 334 334 333 332 331 330 330 329 327 325 324 323 323 322 321 320 319 319 318 317 316 317 317 316 317 317 315 314 314 312 311 309 306 303 301 300 298 297 296 294 295 296 296 296 296 295 295 299
329 328 331 332 333 333 332 332 330 329 328 328 326 325 324 323 322 321 320 319 318 318 317 316 316 315 316 316 316 315 316 314 313 311 309 307 305 301 299 297 297 297 297 295 296 296 296 296 296 295 295 298
329 329 327 330 329 331 330 330 331 330 329 328 327 325 325 323 323 321 319 318 318 317 316 316 316 315 316 316 315 314 316 314 312 310 309 307 304 302 298 296 296 297 297 296 296 296 295 295 294 295 295 296
328 327 326 326 328 330 326 329 330 330 329 328 327 325 324 323 322 321 320 318 318 316 316 315 315 315 316 315 315 314 314 314 312 310 308 306 305 302 298 296 296 296 296 295 295 296 295 295 294 295 295 295
326 326 326 325 326 328 325 328 327 327 327 328 327 325 324 323 323 322 320 318 317 317 315 315 314 314 315 315 315 314 313 312 313 309 306 303 303 299 297 297 297 296 295 295 296 295 295 294 295 294 294 294
327 325 325 325 324 324 325 325 325 325 326 326 326 325 324 322 322 321 319 318 317 316 315 314 314 314 314 314 314 315 313 310 312 308 305 301 300 297 296 296 295 294 295 294 296 295 294 294 294 295 294 294
326 325 324 322 324 323 323 323 323 323 324 323 325 324 324 323 321 320 319 318 317 316 314 313 314 313 313 314 313 314 313 309 308 306 301 298 298 296 296 295 294 295 294 294 296 294 293 292 294 293 294 293
325 325 324 323 323 323 322 323 323 323 322 323 323 323 324 323 321 319 319 317 317 315 314 313 313 312 313 313 312 312 312 307 304 300 298 297 297 295 295 294 294 295 294 294 294 294 293 293 293 294 294 294
322 322 321 321 322 321 322 320 320 320 321 320 321 321 322 322 320 319 318 317 315 315 314 312 312 312 312 312 311 310 308 306 301 299 297 296 295 296 294 293 293 293 293 292 292 293 292 292 293 293 294 293
320 318 320 319 320 321 321 321 321 318 320 320 319 320 320 321 319 318 317 316 315 313 313 312 311 311 312 310 309 308 305 304 299 298 297 295 294 294 292 292 293 293 292 292 293 293 293 293 292 292 294 294
316 317 316 317 317 320 318 318 320 318 319 319 317 317 319 319 318 317 316 314 314 313 311 311 311 310 308 307 306 305 302 301 298 296 296 295 295 293 292 292 292 292 291 291 292 292 292 292 293 292 292 293
313 316 315 315 316 316 316 319 316 316 317 318 318 315 316 316 317 316 314 313 312 312 311 309 310 307 307 305 304 301 299 298 297 296 296 294 294 294 292 292 291 290 291 291 292 291 290 292 293 292 293 293
314 316 316 315 314 314 316 314 315 316 317 317 315 316 315 316 316 316 313 312 311 310 310 309 309 307 306 304 302 301 298 297 295 295 296 294 292 293 292 291 291 290 290 292 291 290 290 290 290 291 291 292
313 313 314 313 314 314 314 315 314 314 314 313 315 315 314 315 316 315 314 311 310 310 307 307 307 307 305 303 301 300 298 296 294 294 294 294 292 291 291 291 290 291 291 291 291 290 290 290 290 290 290 292
312 311 309 310 309 311 311 312 311 313 312 313 311 312 312 313 315 314 315 312 311 310 308 306 305 306 304 302 300 300 298 296 294 294 293 293 293 291 290 290 290 291 291 289 289 289 289 288 289 290 290 290
308 307 306 305 307 306 306 308 308 311 311 311 310 309 310 310 311 311 312 312 311 310 308 307 304 305 302 301 300 300 299 298 295 295 294 293 292 291 290 289 289 291 291 290 287 287 287 289 288 289 289 289
306 305 305 305 304 304 305 307 306 308 308 308 308 307 308 308 309 310 311 309 308 308 308 306 303 303 303 300 300 300 299 297 295 294 293 291 289 290 291 290 290 291 291 287 287 286 286 286 285 286 288 288
302 304 305 305 303 304 305 306 306 305 304 306 305 305 304 305 306 308 307 306 306 306 306 305 303 301 302 301 301 299 298 296 295 293 293 292 292 289 288 289 290 291 292 287 285 285 285 281 284 285 286 286
300 301 301 301 301 302 304 302 301 303 303 303 304 304 303 303 301 302 303 303 304 304 305 304 303 301 300 300 299 300 299 297 296 293 292 292 292 291 289 288 289 291 291 287 288 284 285 281 282 280 283 285
299 300 300 299 300 299 298 299 299 298 297 298 298 300 300 301 300 300 300 299 301 302 302 302 303 300 299 298 298 299 299 297 297 296 294 293 292 291 291 289 288 290 290 288 292 288 282 281 282 282 281 283
298 297 297 297 296 295 295 294 296 295 296 297 298 299 298 299 299 299 299 297 298 298 298 299 299 299 297 297 298 298 298 298 297 295 295 294 293 291 290 291 288 288 290 289 289 288 286 286 285 281 282 283
295 296 296 296 295 294 294 293 294 295 295 295 296 296 297 298 298 298 300 297 296 297 296 297 296 297 297 296 296 297 297 297 296 296 295 295 294 293 293 289 288 288 290 289 289 289 288 288 285 285 285 283